Terminal Aerodrome Forecast
Issued by NWS

Home | Current Version | Previous Version | Text Only | Print | Product List | Glossary On
Versions: 1 2 3 4 5 6 7 8 9 10 11 12 13 14 15 16 17 18 19 20 21 22 23 24 25 26 27 28 29 30 31 32 33 34 35
247
FTUS41 KBOX 271025 AAC
TAFHYA
TAF AMD
KHYA 271025Z 2710/2806 15004KT 1/2SM FG VV002
     FM271200 VRB03KT 2SM BR BKN008
     FM271300 VRB03KT 5SM BR SCT008 BKN120
     FM271400 18007KT P6SM BKN120
     FM271700 19010KT P6SM SCT090
     FM280000 21011KT P6SM SCT090 WS020/24040KT=

USA.gov is the U.S. government's official web portal to all federal, state and local government web resources and services.